Regional Weather Roundup
Issued by NWS

Home | Current Version | Previous Version | Text Only | Print | Product List | Glossary Off
Versions: 1 2 3 4 5 6 7 8 9 10 11 12 13 14 15 16 17 18 19 20 21 22 23 24 25 26 27 28 29 30 31 32 33 34 35 36 37 38 39 40 41 42 43 44 45 46 47 48 49 50

000
ASUS45 KCYS 221110
RWRWY

WYOMING REGIONAL WEATHER ROUNDUP
NATIONAL WEATHER SERVICE CHEYENNE WY
500 AM MDT FRI AUG 22 2014

NOTE:  "FAIR" INDICATES FEW OR NO CLOUDS BELOW 12,000 FEET
WITH NO SIGNIFICANT WEATHER AND/OR OBSTRUCTIONS TO VISIBILITY.

WYZ001-221200-
YELLOWSTONE NATIONAL PARK

CITY           SKY/WX    TMP DP  RH WIND       PRES   REMARKS
LK YELLOWSTONE   N/A     43  42  97 CALM      30.24F
W YELLOWSTONE  NOT AVBL

$$
WYZ002>013-054>058-071-098>099-221200-
NORTHERN WYOMING

CITY           SKY/WX    TMP DP  RH WIND       PRES   REMARKS
JACKSON        MOCLDY    48  48 100 CALM      30.19S
CODY           CLOUDY    52  52 100 NE5       30.12F
GREYBULL       RAIN      57  54  89 NW5       30.10R FOG
WORLAND        MOCLDY    56  47  71 S7        30.10R
SHERIDAN       CLOUDY    59  54  83 CALM      30.10F
BUFFALO        CLOUDY    56  54  93 CALM      30.15S
GILLETTE       MOCLDY    57  54  89 CALM      30.11S
HULETT         CLOUDY    59  57  94 MISG      30.12
NEWCASTLE      FAIR      54  52  94 CALM      30.07

$$
WYZ014>020-022>026-101>103-221200-
CENTRAL WYOMING

CITY           SKY/WX    TMP DP  RH WIND       PRES   REMARKS
BIG PINEY      CLOUDY    47  44  90 NE9       30.21F
PINEDALE       LGT RAIN  46  45  93 E3        30.22F
DUBOIS         CLOUDY    45  41  87 NW5       30.20F
LANDER         MOCLDY    55  46  71 NW5       30.16R
RIVERTON       MOCLDY    54  46  74 NW7       30.16R
CASPER         PTCLDY    50  48  93 NE5       30.14F
DOUGLAS        CLEAR     52  50  93 W3        30.15R

$$
WYZ021-027>030-104>119-221200-
SOUTHERN WYOMING

CITY           SKY/WX    TMP DP  RH WIND       PRES   REMARKS
EVANSTON       MOCLDY    50  47  89 N5        30.19F
KEMMERER       CLOUDY    50  46  87 N8        30.20S
FORT BRIDGER   FAIR      50  45  84 CALM      30.23R
ROCK SPRINGS   PTCLDY    48  42  80 NW10      30.19R
DIXON          FAIR      52  46  80 NE8       30.23S
RAWLINS        PTCLDY    44  41  89 CALM      30.20F
SARATOGA       FAIR      50  45  81 MISG      30.23S
LARAMIE        MOCLDY    52  44  74 S5        30.24S
CHEYENNE       LGT RAIN  60  49  66 S5        30.18R
TORRINGTON     PTCLDY    60  50  69 N10       30.07R
PINE BLUFFS    FAIR      61  52  72 SE6       30.14S

$$



USA.gov is the U.S. government's official web portal to all federal, state and local government web resources and services.